Torna al catalogo

STARLINK-4773

AttivoComunicazioniVLEO
NORAD 53838·PAYLOAD·🇺🇸 United States

Lanciato Sep 19, 2022 da Cape Canaveral Space Force Station

Loading…

Prossimi Passaggi (prossime 24 ore)

TLE

AggiornatoSource: CelesTrak SupGP

Epoca: Sep 14, 2026, 21:53 UTC

1 53838C 22114W   26257.91229167 -.00033522  00000+0 -21024-2 0  2570
2 53838  53.1587 164.2105 0001586  89.0168 335.2297 15.08848168    10

Traccia STARLINK-4773 in tempo reale con AllMySat

Download on the App Store